Rutland, VT

10:24 AM EDT on March 28, 2017 (GMT -0400)
Rutland State

Weather History for KRUT - October, 2014

Change the Weather History Date:

Friday, October 24, 2014

  Actual Average Record
Temperature  
Mean Temperature 42 °F -  
Max Temperature 45 °F - 76 °F (1963)
Min Temperature 39 °F - 16 °F (1969)
Degree Days  
Heating Degree Days 23    
Month to date heating degree days 306  
Since 1 July heating degree days 568  
Cooling Degree Days 0    
Month to date cooling degree days 10  
Year to date cooling degree days 280  
Moisture  
Dew Point 39 °F    
Average Humidity 92    
Maximum Humidity 100    
Minimum Humidity 83    
Precipitation  
Precipitation 0.00 in - 2.21 in (1990)
Month to date precipitation 0.21  
Year to date precipitation 23.02  
Sea Level Pressure  
Sea Level Pressure 29.81 in    
Wind  
Wind Speed 8 mph (NW)    
Max Wind Speed 13 mph    
Max Gust Speed 24 mph    
Visibility 8 miles    
Events      
T = Trace of Precipitation, MM = Missing Value Source: NWS Daily Summary

Daily Weather History Graph

Daily Weather History Graph

Search for Another Location

Airport or City:

Trip Planner

Search our weather history database for the weather conditions in past years. The results will help you decide how hot, cold, wet, or windy it might be!

Date:

Astronomy

Oct. 24, 2014 Rise Set
Actual Time 7:17 AM EDT 5:54 PM EDT
Civil Twilight 6:47 AM EDT 6:23 PM EDT
Nautical Twilight 6:14 AM EDT 6:56 PM EDT
Astronomical Twilight 5:41 AM EDT 7:30 PM EDT
Moon 7:54 AM EDT (10/24) 6:31 PM EDT (10/24)
Length of Visible Light 11h 35m
Length of Day
10h 37m
New Moon, 1% of the Moon is Illuminated
Oct 24
New Moon
Oct 30
First Quarter
Nov 6
Full
Nov 14
Last Quarter
Nov 22
New

Hourly Weather History & Observations

Time (EDT) Temp. Windchill Dew Point Humidity Pressure Visibility Wind Dir Wind Speed Gust Speed Precip Events Conditions
12:15 AM 42.8 °F 40.1 °F 39.2 °F 87% 29.81 in 10.0 mi NNW 4.6 mph - N/A   Overcast
12:35 AM 42.8 °F 40.1 °F 41.0 °F 93% 29.81 in 10.0 mi NW 4.6 mph - N/A   Overcast
12:55 AM 41.0 °F 35.8 °F 39.2 °F 93% 29.81 in 5.0 mi NNW 8.1 mph - N/A   Overcast
1:15 AM 41.0 °F 38.0 °F 39.2 °F 93% 29.81 in 3.0 mi NNW 4.6 mph - N/A   Overcast
1:35 AM 41.0 °F 38.0 °F 41.0 °F 100% 29.81 in 3.0 mi NNW 4.6 mph - N/A   Overcast
1:55 AM 41.0 °F 37.1 °F 41.0 °F 100% 29.81 in 5.0 mi NNW 5.8 mph - N/A   Overcast
2:15 AM 41.0 °F 37.1 °F 41.0 °F 100% 29.81 in 2.5 mi NNW 5.8 mph - N/A   Overcast
2:35 AM 41.0 °F 37.1 °F 39.2 °F 93% 29.80 in 3.0 mi NNW 5.8 mph - N/A   Overcast
2:55 AM 41.0 °F 37.1 °F 39.2 °F 93% 29.79 in 3.0 mi NNW 5.8 mph - N/A   Overcast
3:15 AM 41.0 °F 35.2 °F 39.2 °F 93% 29.79 in 9.0 mi NNW 9.2 mph - N/A   Overcast
3:35 AM 41.0 °F 35.2 °F 39.2 °F 93% 29.79 in 10.0 mi NNW 9.2 mph - N/A   Overcast
3:55 AM 41.0 °F 36.4 °F 39.2 °F 93% 29.79 in 10.0 mi NNW 6.9 mph - N/A   Overcast
4:15 AM 41.0 °F 37.1 °F 39.2 °F 93% 29.79 in 10.0 mi NW 5.8 mph - N/A   Overcast
4:35 AM 41.0 °F 35.2 °F 39.2 °F 93% 29.79 in 4.0 mi NW 9.2 mph - N/A   Overcast
4:55 AM 41.0 °F 34.3 °F 39.2 °F 93% 29.79 in 4.0 mi NW 11.5 mph - N/A   Overcast
5:15 AM 41.0 °F 34.3 °F 39.2 °F 93% 29.80 in 5.0 mi NNW 11.5 mph 16.1 mph N/A   Overcast
5:35 AM 41.0 °F 35.8 °F 39.2 °F 93% 29.80 in 4.0 mi NW 8.1 mph 16.1 mph N/A   Overcast
5:55 AM 41.0 °F 36.4 °F 39.2 °F 93% 29.80 in 7.0 mi NW 6.9 mph 17.3 mph N/A   Overcast
6:15 AM 41.0 °F 34.7 °F 39.2 °F 93% 29.81 in 5.0 mi NNW 10.4 mph 18.4 mph N/A   Overcast
6:35 AM 41.0 °F 34.7 °F 39.2 °F 93% 29.81 in 5.0 mi NW 10.4 mph - N/A   Overcast
6:55 AM 41.0 °F 35.8 °F 39.2 °F 93% 29.81 in 8.0 mi NW 8.1 mph - N/A   Overcast
7:15 AM 41.0 °F 35.2 °F 39.2 °F 93% 29.81 in 10.0 mi NW 9.2 mph - N/A   Overcast
7:35 AM 41.0 °F 34.7 °F 39.2 °F 93% 29.81 in 10.0 mi NNW 10.4 mph 17.3 mph N/A   Overcast
7:55 AM 41.0 °F 35.8 °F 39.2 °F 93% 29.81 in 10.0 mi NW 8.1 mph 16.1 mph N/A   Overcast
8:15 AM 39.2 °F 31.6 °F 39.2 °F 100% 29.82 in 10.0 mi NW 12.7 mph - N/A   Overcast
8:35 AM 39.2 °F 33.6 °F 39.2 °F 100% 29.82 in 5.0 mi NW 8.1 mph - N/A   Overcast
8:55 AM 39.2 °F 35.0 °F 39.2 °F 100% 29.83 in 9.0 mi NW 5.8 mph - N/A   Overcast
9:15 AM 39.2 °F 32.0 °F 37.4 °F 93% 29.83 in 10.0 mi NNW 11.5 mph 19.6 mph N/A   Overcast
9:35 AM 41.0 °F 34.3 °F 39.2 °F 93% 29.83 in 10.0 mi NW 11.5 mph 19.6 mph N/A   Overcast
9:55 AM 41.0 °F 34.7 °F 37.4 °F 87% 29.83 in 10.0 mi NW 10.4 mph 21.9 mph N/A   Overcast
10:15 AM 41.0 °F 34.7 °F 39.2 °F 93% 29.83 in 10.0 mi NNW 10.4 mph 18.4 mph N/A   Overcast
10:35 AM 41.0 °F 34.3 °F 39.2 °F 93% 29.83 in 10.0 mi NNW 11.5 mph - N/A   Overcast
10:55 AM 41.0 °F 35.8 °F 39.2 °F 93% 29.82 in 3.0 mi NW 8.1 mph - N/A   Overcast
11:15 AM 41.0 °F 35.2 °F 39.2 °F 93% 29.82 in 10.0 mi NW 9.2 mph - N/A   Overcast
11:35 AM 41.0 °F 34.7 °F 39.2 °F 93% 29.82 in 5.0 mi NNW 10.4 mph 17.3 mph N/A   Overcast
11:55 AM 41.0 °F 33.9 °F 39.2 °F 93% 29.82 in 7.0 mi NW 12.7 mph 24.2 mph N/A   Overcast
12:15 PM 42.8 °F 35.8 °F 39.2 °F 87% 29.81 in 9.0 mi NW 13.8 mph 18.4 mph N/A   Overcast
12:35 PM 42.8 °F 36.6 °F 39.2 °F 87% 29.81 in 5.0 mi NW 11.5 mph 18.4 mph N/A   Overcast
12:55 PM 42.8 °F 36.2 °F 39.2 °F 87% 29.80 in 9.0 mi NNW 12.7 mph 21.9 mph N/A   Overcast
1:15 PM 42.8 °F 37.0 °F 39.2 °F 87% 29.80 in 9.0 mi NW 10.4 mph 18.4 mph N/A   Overcast
1:35 PM 42.8 °F 37.5 °F 39.2 °F 87% 29.80 in 10.0 mi NW 9.2 mph 24.2 mph N/A   Overcast
1:55 PM 42.8 °F 37.5 °F 39.2 °F 87% 29.80 in 10.0 mi NW 9.2 mph 17.3 mph N/A   Overcast
2:15 PM 42.8 °F 36.2 °F 39.2 °F 87% 29.79 in 10.0 mi NW 12.7 mph 21.9 mph N/A   Overcast
2:35 PM 42.8 °F 37.0 °F 39.2 °F 87% 29.79 in 10.0 mi NW 10.4 mph 20.7 mph N/A   Overcast
2:55 PM 42.8 °F 37.0 °F 39.2 °F 87% 29.79 in 10.0 mi NW 10.4 mph 17.3 mph N/A   Overcast
3:15 PM 42.8 °F 36.6 °F 39.2 °F 87% 29.79 in 10.0 mi NW 11.5 mph 17.3 mph N/A   Overcast
3:35 PM 42.8 °F 37.0 °F 39.2 °F 87% 29.79 in 10.0 mi NW 10.4 mph 16.1 mph N/A   Overcast
3:55 PM 42.8 °F 36.6 °F 39.2 °F 87% 29.79 in 10.0 mi NW 11.5 mph 18.4 mph N/A   Overcast
4:15 PM 44.6 °F 39.7 °F 39.2 °F 81% 29.79 in 10.0 mi WNW 9.2 mph - N/A   Overcast
4:35 PM 44.6 °F 38.8 °F 39.2 °F 81% 29.80 in 10.0 mi NW 11.5 mph 16.1 mph N/A   Overcast
4:55 PM 44.6 °F 39.7 °F 39.2 °F 81% 29.80 in 10.0 mi NW 9.2 mph 18.4 mph N/A   Overcast
5:15 PM 44.6 °F 39.2 °F 39.2 °F 81% 29.80 in 10.0 mi NW 10.4 mph - N/A   Overcast
5:35 PM 44.6 °F 39.2 °F 39.2 °F 81% 29.80 in 10.0 mi NW 10.4 mph - N/A   Overcast
5:55 PM 44.6 °F 39.7 °F 39.2 °F 81% 29.80 in 10.0 mi WNW 9.2 mph - N/A   Overcast
6:15 PM 44.6 °F 38.8 °F 39.2 °F 81% 29.81 in 10.0 mi NW 11.5 mph 18.4 mph N/A   Overcast
6:35 PM 44.6 °F 38.8 °F 39.2 °F 81% 29.81 in 10.0 mi NW 11.5 mph 17.3 mph N/A   Overcast
6:55 PM 44.6 °F 38.8 °F 39.2 °F 81% 29.82 in 10.0 mi NNW 11.5 mph 19.6 mph N/A   Overcast
7:15 PM 44.6 °F 39.7 °F 41.0 °F 87% 29.82 in 10.0 mi NNW 9.2 mph 21.9 mph N/A   Overcast
7:35 PM 44.6 °F 40.7 °F 41.0 °F 87% 29.82 in 10.0 mi NNW 6.9 mph - N/A   Overcast
7:55 PM 44.6 °F 40.2 °F 39.2 °F 81% 29.83 in 10.0 mi NNW 8.1 mph - N/A   Overcast
8:15 PM 44.6 °F 40.2 °F 39.2 °F 81% 29.83 in 10.0 mi NNW 8.1 mph - N/A   Overcast
8:35 PM 44.6 °F 41.4 °F 39.2 °F 81% 29.83 in 10.0 mi NNW 5.8 mph - N/A   Overcast
8:55 PM 44.6 °F 41.4 °F 39.2 °F 81% 29.83 in 10.0 mi North 5.8 mph - N/A   Overcast
9:15 PM 42.8 °F - 39.2 °F 87% 29.84 in 10.0 mi Calm Calm - N/A   Overcast
9:35 PM 42.8 °F - 39.2 °F 87% 29.83 in 10.0 mi Calm Calm - N/A   Overcast
9:55 PM 44.6 °F - 39.2 °F 81% 29.84 in 10.0 mi Calm Calm - N/A   Overcast
10:15 PM 44.6 °F - 39.2 °F 81% 29.84 in 10.0 mi Calm Calm - N/A   Overcast
10:35 PM 44.6 °F 43.1 °F 41.0 °F 87% 29.84 in 10.0 mi NW 3.5 mph - N/A   Overcast
10:55 PM 42.8 °F - 39.2 °F 87% 29.83 in 10.0 mi Calm Calm - N/A   Overcast
11:15 PM 42.8 °F - 41.0 °F 93% 29.83 in 10.0 mi Calm Calm - N/A   Overcast
11:35 PM 42.8 °F - 39.2 °F 87% 29.83 in 10.0 mi Calm Calm - N/A   Overcast
11:55 PM 42.8 °F - 41.0 °F 93% 29.83 in 10.0 mi Calm Calm - N/A   Scattered Clouds